Location: Goettingen
(51.5300°N, 9.9433°E)
Time: 19:56:54
(UTC+01:00)

ISS - Pass Details

Date: 14 December 2017
Orbit: 402 x 407 km, 51.6° (Epoch: 11 December)

Event Time Altitude Azimuth Distance (km) Brightness Sun altitude
Rises 17:09:06 0° 283° (WNW) 2,332 0.9 -8.4°
Reaches altitude 10° 17:11:13 10° 278° (W) 1,469 -0.1 -8.7°
Maximum altitude 17:14:24 47° 203° (SSW) 546 -2.8 -9.2°
Drops below altitude 10° 17:17:34 10° 128° (SE) 1,462 -1.3 -9.6°
Enters shadow 17:19:37 - 123° (ESE) 2,294 -0.3 -9.9°
